Flag for Greenland Weather past 2 weeks in Sisimiut, Greenland

Now
39 °F

Partly sunny.


Feels Like: 30 °F
Forecast: N/A
Wind: 15 mph from West

Location: Sdr Stroemfjord

Current Time: Jun 3, 2015 at 9:59:58 PM

Latest Report: Jun 3, 2015 at 9:00 PM


Visibility: 31 mi

Pressure: 30.20 "Hg

Humidity: 63%

Dew point: 27 °F

Location of SisimiutLocation

Historic Weather in Sisimiut — Graph

°F

Sisimiut temperature yesterday

Maximum temperature yesterday: 47 °F (at 6:00 PM)
Minimum temperature yesterday: 34 °F (at 6:00 AM)
Average temperature yesterday: 40 °F

Past Weeks' High & Low Weather Summary

 TemperatureHumidityPressure
High61 °F (May 31, 3:00 PM)89% (May 20, 4:00 AM)30.26 "Hg (May 20, 4:00 AM)
Low23 °F (May 22, 4:00 AM)15% (May 31, 3:00 PM)29.29 "Hg (May 29, 2:00 AM)
Average37 °F49%29.75 "Hg
* Reported May 19 8:00 PM — Jun 3 8:00 PM, Sisimiut, Weather by CustomWeather, © 2015

Note: Actual official high and low records may vary slightly from our data, if they occured in-between our weather recording intervals... More about our weather records

Advertising

Sisimiut weather history for previous 24 hours

 ConditionsComfort  
Time TempWeatherWind HumidityBarometerVisibility
8:00 PM
Wed, Jun 3
42 °FPartly sunny.14 mph57%30.20 "Hg22 mi
6:00 PM45 °FSunny.16 mph48%30.19 "Hg25 mi
5:00 PM44 °FSunny.17 mph50%30.20 "Hg17 mi
4:00 PM44 °FPassing clouds.15 mph50%30.21 "Hg47 mi
3:00 PM44 °FSunny.15 mph49%30.22 "Hg25 mi
2:00 PM42 °FOvercast.14 mph52%30.23 "Hg19 mi
1:00 PM40 °FOvercast.9 mph56%30.24 "Hg25 mi
12:00 PM40 °FOvercast.10 mph56%30.24 "Hg28 mi
11:00 AM37 °FOvercast.10 mph60%30.25 "Hg25 mi
10:00 AM36 °FPartly sunny.9 mph63%30.26 "Hg37 mi
8:00 AM34 °FOvercast.8 mph67%30.26 "Hg28 mi
7:00 AM33 °FOvercast.8 mph69%30.26 "Hg31 mi
6:00 AM34 °FOvercast.10 mph68%30.24 "Hg31 mi
5:00 AM33 °FPartly sunny.9 mph68%30.23 "Hg31 mi
4:00 AM33 °FScattered clouds.9 mph68%30.21 "Hg47 mi
3:00 AM33 °FOvercast.13 mph66%30.20 "Hg31 mi
2:00 AM34 °FOvercast.8 mph62%30.19 "Hg31 mi
1:00 AM36 °FOvercast.9 mph59%30.19 "Hg31 mi
12:00 AM36 °FOvercast.8 mph57%30.17 "Hg31 mi
11:00 PM
Tue, Jun 2
38 °FOvercast.10 mph54%30.16 "Hg31 mi
10:00 PM40 °FOvercast.10 mph53%30.15 "Hg47 mi
9:00 PM41 °FOvercast.12 mph52%30.13 "Hg31 mi
Weather by CustomWeather, © 2015

See weather overviewHow to use our weather pages